This is the latest recevied weather packets stored in our database for station/object SP5IZJ-2. If no packets are shown the sender has not sent any weather packets the latest 10 day(s).
| Time | Temp. | Humidity | Pressure | Rain* | Wind** | Luminosity | Snow |
|---|---|---|---|---|---|---|---|
| 1777631660 | 21.67° C | 33% | 1018.5 hPa | 0 mm | - | - | - |
| 1777627042 | 22.78° C | 32% | 1018.7 hPa | 0 mm | - | - | - |
| 1777625367 | 21.11° C | 34% | 1018.8 hPa | 0 mm | - | - | - |
| 1777624943 | 20.56° C | 35% | 1018.9 hPa | 0 mm | - | - | - |
| 1777623264 | 19.44° C | 37% | 1018.9 hPa | 0 mm | - | - | - |
| 1777622846 | 19.44° C | 38% | 1018.9 hPa | 0 mm | - | - | - |
| 1777622004 | 19.44° C | 39% | 1018.9 hPa | 0 mm | - | - | - |
| 1777619079 | 18.33° C | 41% | 1018.9 hPa | 0 mm | - | - | - |
| 1777616966 | 15° C | 41% | 1018.7 hPa | 0 mm | - | - | - |
| 1777615287 | 16.67° C | 42% | 1018.8 hPa | 0 mm | - | - | - |
| 1777614867 | 16.11° C | 44% | 1018.8 hPa | 0 mm | - | - | - |
| 1777613623 | 15° C | 44% | 1018.7 hPa | 0 mm | - | - | - |
| 1777612768 | 15° C | 44% | 1018.7 hPa | 0 mm | - | - | - |
| 1777612348 | 15.56° C | 46% | 1018.6 hPa | 0 mm | - | - | - |
| 1777611089 | 14.44° C | 49% | 1018.6 hPa | 0 mm | - | - | - |
| 1777610251 | 13.33° C | 55% | 1018.7 hPa | 0 mm | - | - | - |
| 1777609410 | 10° C | 66% | 1018.6 hPa | 0 mm | - | - | - |
| 1777608170 | 6.11° C | 61% | 1018.7 hPa | 0 mm | - | - | - |
| 1777604372 | 7.22° C | 57% | 1018.6 hPa | 0 mm | - | - | - |
| 1777603952 | 7.22° C | 56% | 1018.9 hPa | 0 mm | - | - | - |
| 1777603112 | 7.78° C | 56% | 1019 hPa | 0 mm | - | - | - |
| 1777602692 | 7.78° C | 55% | 1019 hPa | 0 mm | - | - | - |
| 1777602272 | 7.78° C | 55% | 1019 hPa | 0 mm | - | - | - |
| 1777601853 | 7.78° C | 55% | 1019 hPa | 0 mm | - | - | - |
| 1777601013 | 8.33° C | 55% | 1019 hPa | 0 mm | - | - | - |
* Rain latest hour (hover to see other rain measurements)
** Current wind speed in m/s (hover to see current wind gust speed)